Hourly Data Report for December 26, 2017

TORONTO CITY
ONTARIO

43°40'00.000" N
79°24'00.000" W
112.50 m
6158355
71508
XTO

Download Data

Hourly Data (December 2017)
Hourly Data Report for December 26, 2017
TIME
LST
Temp Definition
°C
Dew Point Definition
°C
Rel Hum Definition
%
Precip. Amount Definition
mm

Wind Dir Definition
10's deg

Wind Spd Definition
km/h
Visibility Definition
km
Stn Press Definition
kPa
Hmdx Definition


Wind Chill Definition


Weather Definition


00:00 -10.1 -16.5 59 0.0 LegendMM LegendMM   100.72     LegendNANA
01:00 -10.4 -15.9 64 0.0 LegendMM LegendMM   100.79     LegendNANA
02:00 -10.9 -16.8 62 0.0 LegendMM LegendMM   100.88     LegendNANA
03:00 -11.2 -17.1 62 0.0 LegendMM LegendMM   100.95     LegendNANA
04:00 -11.6 -18.1 59 0.0 LegendMM LegendMM   100.99     LegendNANA
05:00 -12.7 -17.6 67 0.0 LegendMM LegendMM   101.03     LegendNANA
06:00 -12.9 -17.9 66 0.0 LegendMM LegendMM   101.09     LegendNANA
07:00 -13.3 -17.9 68 0.0 LegendMM LegendMM   101.17     LegendNANA
08:00 -13.5 -18.4 66 0.0 LegendMM LegendMM   101.22     LegendNANA
09:00 -12.3 -18.6 59 0.0 LegendMM LegendMM   101.27     LegendNANA
10:00 -12.2 -18.8 58 0.0 LegendMM LegendMM   101.38     LegendNANA
11:00 -11.5 -18.9 54 0.0 LegendMM LegendMM   101.42     LegendNANA
12:00 -10.8 -18.7 52 0.0 LegendMM LegendMM   101.40     LegendNANA
13:00 -10.3 -19.2 48 0.0 LegendMM LegendMM   101.39     LegendNANA
14:00 -11.0 -19.6 49 0.0 LegendMM LegendMM   101.39     LegendNANA
15:00 -11.1 -18.9 53 0.0 LegendMM LegendMM   101.44     LegendNANA
16:00 -11.6 -20.1 50 0.0 LegendMM LegendMM   101.50     LegendNANA
17:00 -12.2 -19.0 57 0.0 LegendMM LegendMM   101.56     LegendNANA
18:00 -12.9 -18.7 62 0.0 LegendMM LegendMM   101.60     LegendNANA
19:00 -13.4 -18.8 63 0.0 LegendMM LegendMM   101.64     LegendNANA
20:00 -13.5 -19.0 64 0.0 LegendMM LegendMM   101.64     LegendNANA
21:00 -13.5 -18.8 64 0.0 LegendMM LegendMM   101.64     LegendNANA
22:00 -13.7 -18.6 67 0.0 LegendMM LegendMM   101.65     LegendNANA
23:00 -14.0 -18.6 68 0.0 LegendMM LegendMM   101.67     LegendNANA

Notes on Data Quality.

Legend

  • E = Estimated
  • M = Missing
  • NA = Not Available*
  • [empty] = Indicates an unobserved value
Date modified: